TIME,DELAY(SENSOR),PRES,OXYGEN,RAWTEMP,T(OPTODE),TCPHASE,FLUOR,BETA(BETA700),BETA(BETA412),BETA(BETA440),CDOM,C(CSC),ED(ED412.40),ED(ED444.00),ED(ED489.70),ED(ED554.30),LU(LU411.80),LU(LU443.40),LU(LU489.60),LU(LU554.10),COMP,TILTX,TILTY,CHECK
1369021633,5808,807.7600097656250000,42.3724517822265600,655.3668212890625000,4.7803878784179690,54.5932197570800800,52,99,87,78,79,14926,2147753298,2147426331,2148008384,2147876397,2147633764,2147058724,2148251721,2147196059,3346,4,14,26488
1369025229,5808,852.2199707031250000,45.4098701477050800,660.2819213867188000,4.6186900138854980,54.1977310180664060,52,99,86,77,79,14923,2147754066,2147424493,2148010157,2147875090,2147641828,2147055552,2148256502,2147199542,108,4,13,18303
1369028829,5810,852.5599975585938000,45.9353599548339840,661.7208251953125000,4.5713062286376950,54.1440887451171900,52,100,87,81,79,14924,2147752045,2147425490,2148009344,2147874048,2147641526,2147059766,2148257170,2147199286,2896,4,13,54480
1369032429,5810,876.4899902343750000,47.4163703918457000,664.6892700195312000,4.4734711647033690,53.9687309265136700,53,98,86,79,79,14922,2147756288,2147426002,2148011355,2147872740,2147638555,2147054509,2148255122,2147198390,167,4,13,60933
1369036029,5809,884.2399902343750000,48.5372314453125000,665.2100830078125000,4.4562969207763670,53.8163604736328100,52,97,87,78,79,14923,2147753225,2147426413,2148009572,2147876288,2147642048,2147056173,2148256667,2147199332,3450,4,13,47248
1369039629,5810,888.1699829101562000,48.5680198669433600,665.2269287109375000,4.4557418823242190,53.8108215332031250,53,98,88,80,80,14924,2147752109,2147425974,2148009225,2147873929,2147639762,2147052224,2148259702,2147201124,388,4,13,38869
1369043229,5813,918.4099731445312000,49.2507896423339840,666.3723144531250000,4.4179592132568360,53.7308006286621100,53,97,85,77,79,14923,2147756882,2147426596,2148011977,2147876498,2147639734,2147056886,2148257280,2147199634,3577,4,13,36002
1369046829,5810,920.8099975585938000,49.7394409179687500,666.7421875000000000,4.4057559967041020,53.6678504943847660,51,99,85,78,79,14923,2147754587,2147425398,2148007625,2147873920,2147641124,2147055049,2148258294,2147198080,3166,4,13,26587
1369050429,5807,915.5999755859375000,49.6402587890625000,667.4210815429688000,4.3833479881286620,53.6888389587402340,52,100,86,79,80,14925,2147754331,2147427556,2148009334,2147873728,2147640768,2147056283,2148260013,2147199250,357,4,13,29617
1369054029,5810,941.6300048828125000,50.6746711730957000,669.7526855468750000,4.3063659667968750,53.5753898620605500,52,97,90,79,79,14925,2147754413,2147427318,2148011702,2147876086,2147643081,2147055286,2148261659,2147195318,3506,4,13,45915
1369057629,5811,939.4000244140625000,50.8622283935546900,670.3356933593750000,4.2871069908142090,53.5581092834472660,53,99,83,78,80,14925,2147752932,2147425280,2148009161,2147877933,2147642395,2147053412,2148259035,2147197586,2685,4,13,3177
1369061229,5811,940.2100219726562000,51.2536506652832000,671.9468994140625000,4.2338638305664060,53.5228881835937500,52,99,87,80,79,14922,2147756690,2147424082,2148008137,2147874066,2147645613,2147052946,2148261467,2147199890,54,4,13,30641
1369064829,5806,960.8900146484375000,49.7035293579101560,674.4901123046875000,4.1497569084167480,53.7669181823730500,52,97,86,78,81,14921,2147754267,2147426742,2148010294,2147874624,2147644891,2147055652,2148261339,2147201097,2938,4,13,10955
1369068429,5810,966.2399902343750000,49.8699989318847660,673.8682250976562000,4.1703319549560550,53.7324104309082000,53,99,85,77,79,14922,2147755401,2147428525,2148009481,2147874148,2147643547,2147049682,2148259529,2147198345,256,4,13,31673
1369072029,5808,975.3300170898438000,50.2003593444824200,672.8494873046875000,4.2040209770202640,53.6810493469238300,53,96,89,79,80,14923,2147755602,2147423003,2148011062,2147876251,2147641133,2147045897,2148259218,2147198253,326,4,13,44170
1369075629,5809,974.5800170898438000,49.9459495544433600,672.7169189453125000,4.2084059715271000,53.7098503112793000,52,97,86,80,80,14915,2147754432,2147427766,2148009728,2147873426,2147645321,2147052836,2148257938,2147199277,259,4,13,55603
1369079229,5812,982.9600219726562000,50.2804412841796900,672.6364135742188000,4.2110671997070310,53.6656913757324200,52,99,87,79,79,14914,2147753993,2147426633,2148008932,2147874916,2147643995,2147052525,2148254354,2147197156,3234,4,13,51843
1369082829,5810,978.1799926757812000,50.3935317993164060,671.7034301757812000,4.2419109344482420,53.6377182006835940,52,97,87,79,79,14915,2147755547,2147427017,2148011172,2147872987,2147642514,2147056566,2148258084,2147196699,3540,4,13,14101
1369086429,5812,978.3400268554688000,49.4084892272949200,672.5693969726562000,4.2132840156555180,53.7864799499511700,52,97,89,79,80,14909,2147755474,2147423259,2148011382,2147875483,2147643026,2147054034,2148255780,2147199049,437,4,13,469
1369090029,5810,976.8099975585938000,50.0655288696289060,672.6279296875000000,4.2113490104675290,53.6917991638183600,52,96,86,78,79,14911,2147752950,2147422994,2148008292,2147875227,2147643565,2147049600,2148261677,2147198765,3495,4,13,20759
1369093629,5808,976.2500000000000000,49.8201293945312500,672.6063232421875000,4.2120652198791500,53.7234611511230500,52,99,87,80,80,14911,2147753581,2147426870,2148011309,2147875492,2147643465,2147049984,2148258212,2147197787,3346,4,13,60126
1369097229,5808,971.0499877929688000,49.6045684814453100,672.6168212890625000,4.2117180824279785,53.7542610168457000,53,99,84,78,79,14910,2147755318,2147426358,2148009014,2147876242,2147641426,2147058505,2148257453,2147200018,734,4,13,55754
1369100829,5807,985.2399902343750000,49.7965393066406250,672.5899047851562000,4.2126059532165530,53.7344017028808600,52,95,85,78,79,14906,2147759149,2147427227,2148011858,2147872530,2147642907,2147050651,2148257627,2147198966,3412,4,13,54368
1369104429,5810,977.5200195312500000,50.2521018981933600,672.4453735351562000,4.2173838615417480,53.6639900207519500,53,99,85,78,79,14911,2147754569,2147426614,2148010267,2147874770,2147640566,2147054793,2148259318,2147198125,284,4,13,38035
1369108029,5809,971.2199707031250000,49.8365097045898440,672.8967895507812000,4.2024588584899900,53.7305984497070300,52,99,84,80,81,14911,2147756105,2147424512,2148008950,2147875437,2147642368,2147047405,2148258349,2147198555,839,4,13,46998
1369111629,5808,987.0499877929688000,50.3714408874511700,672.5499877929688000,4.2139239311218260,53.6481399536132800,53,98,86,79,80,14912,2147753398,2147426834,2148008155,2147874194,2147641252,2147054061,2148259666,2147199478,2056,4,13,59419
1369115229,5812,985.7199707031250000,51.0157012939453100,671.9337158203125000,4.2343010902404785,53.5569992065429700,51,97,84,78,79,14908,2147753024,2147425892,2148012068,2147876964,2147643090,2147053257,2148259894,2147198125,2926,4,13,61851
1369118829,5811,982.1500244140625000,50.0165901184082000,672.6881713867188000,4.2093558311462400,53.7000389099121100,53,97,87,79,81,14907,2147756443,2147429284,2148010386,2147876260,2147639204,2147051017,2148258962,2147199332,3159,4,13,45272
1369122429,5811,978.4600219726562000,49.6836585998535160,674.2183837890625000,4.1587448120117190,53.7672691345214840,52,100,86,80,79,14908,2147756306,2147427318,2148012681,2147877266,2147639049,2147051721,2148261650,2147199744,67,4,13,30906
1369126029,5808,976.7299804687500000,50.0162010192871100,672.8823852539062000,4.2029337882995605,53.7068595886230500,52,99,85,79,80,14909,2147755904,2147425728,2148012032,2147871616,2147640585,2147054509,2148258880,2147197385,933,4,13,61425
1369129629,5809,983.1400146484375000,49.7027587890625000,673.8992919921875000,4.1693019866943360,53.7571601867675800,52,99,87,78,81,14909,2147757869,2147425435,2148011062,2147875556,2147642578,2147052772,2148256411,2147200073,3461,4,13,9123
1369133229,5806,983.5499877929688000,49.9370498657226560,673.0894165039062000,4.1960887908935550,53.7182502746582000,52,98,89,77,80,14906,2147757805,2147424768,2148010779,2147877714,2147641536,2147052580,2148260964,2147199030,3029,4,13,63454
1369136829,5806,984.1199951171875000,50.2799301147460940,672.5098876953125000,4.2152500152587890,53.6597709655761700,53,98,89,79,80,14909,2147756324,2147427968,2148008082,2147876406,2147641462,2147047798,2148261833,2147200621,3337,4,13,3801
1369140429,5809,981.5499877929688000,49.9952812194824200,673.0629882812500000,4.1969599723815920,53.7122001647949200,52,97,86,79,80,14905,2147754432,2147425691,2148005851,2147875337,2147645101,2147050358,2148265636,2147199177,17,4,13,12196
1369144029,5807,972.7600097656250000,50.1492614746093750,673.1646728515625000,4.1936001777648930,53.6908683776855500,51,99,90,81,79,14908,2147752137,2147423012,2148009801,2147873069,2147640374,2147055195,2148261814,2147196589,2821,4,13,33578
1369147629,5811,979.9699707031250000,49.1005897521972660,673.7199096679688000,4.1752381324768070,53.8453216552734400,52,104,85,80,80,14909,2147754221,2147426212,2148012598,2147875968,2147640429,2147057389,2148261897,2147199725,146,4,13,59763
1369151229,5809,978.7500000000000000,48.8210906982421900,674.0025024414062000,4.1658902168273930,53.8815994262695300,52,98,89,80,80,14906,2147757586,2147424749,2148010240,2147873737,2147644050,2147056868,2148258148,2147194651,3569,4,13,43693
1369154829,5809,979.4500122070312000,49.3963012695312500,673.4520263671875000,4.1840968132019040,53.7952995300293000,52,98,87,78,80,14907,2147754368,2147422336,2148009517,2147872676,2147643867,2147052461,2148261449,2147195437,173,4,13,27953
1369158429,5806,981.6300048828125000,49.4860000610351560,673.4111938476562000,4.1854481697082520,53.7829399108886700,53,97,87,77,79,14898,2147754514,2147426102,2148012214,2147875044,2147642267,2147050285,2148264338,2147200365,180,4,13,27967
1369162029,5810,977.6900024414062000,50.2752113342285160,673.1904296875000000,4.1927471160888670,53.6733016967773440,53,98,91,79,79,14900,2147756114,2147424676,2148010121,2147878116,2147643346,2147048393,2148258825,2147198646,477,4,13,9333
1369165629,5812,975.8200073242188000,48.8758811950683600,674.2548828125000000,4.1575369834899900,53.8819694519043000,52,97,84,78,80,14897,2147754441,2147425435,2148008694,2147876992,2147641609,2147054491,2148258413,2147197814,38,4,13,11191
1369167056,5811,979.4199829101562000,48.7760696411132800,674.6735839843750000,4.1436882019042970,53.9004211425781250,52,104,85,78,81,14888,2147752082,2147426459,2148011053,2147875227,2147639424,2147044644,2148261302,2147197412,3362,4,13,9085
